Simultaneous Nadir Overpasses (SNOs) Predictions

Prediction of SNOs between FY3D and TERRA Satellite Orbit:

Table of predicted SNOs for the next 14.0 days since TLE Epoch: 3/13/2021
Index Date (FY3D) Time (FY3D) Lat,Lon (FY3D) SZA (FY3D ) Date (TERRA) Time (TERRA) Lat,Lon (TERRA) SZA (TERRA ) Distance(km) Time Diff (sec)
1 03/13/2021 02:25:02 69.36, 143.47 72.15 03/13/2021 02:24:27 69.37, 143.52 72.16 2.32 35
2 03/15/2021 17:50:39 -69.47, 91.92 108.78 03/15/2021 17:51:27 -69.48, 91.91 108.78 1.18 48
3 03/15/2021 18:41:22 69.35,-100.59 71.09 03/15/2021 18:40:54 69.37,-100.59 71.11 2.60 28
4 03/15/2021 19:31:47 -68.36, 68.09 109.95 03/15/2021 19:30:40 -68.38, 65.78 109.89 94.45 67
5 03/18/2021 10:06:59 -69.52,-152.21 109.80 03/18/2021 10:07:53 -69.49,-152.21 109.83 3.25 54
6 03/18/2021 10:57:42 69.40, 15.28 70.07 03/18/2021 10:57:20 69.37, 15.29 70.05 2.74 22
7 03/18/2021 11:48:10 -68.56,-176.25 110.80 03/18/2021 11:47:02 -68.60,-178.06 110.73 73.79 68
8 03/21/2021 02:23:19 -69.51, -36.26 110.87 03/21/2021 02:24:19 -69.54, -36.26 110.84 3.58 60
9 03/21/2021 03:14:02 69.40, 131.21 69.01 03/21/2021 03:13:46 69.43, 131.24 69.04 3.42 16
10 03/21/2021 04:04:35 -68.82, -60.66 111.60 03/21/2021 04:03:24 -68.88, -61.84 111.52 47.60 71
11 03/23/2021 18:39:40 -69.56, 79.60 111.88 03/23/2021 18:40:46 -69.53, 79.62 111.91 2.60 66
12 03/23/2021 19:30:22 69.40,-112.85 67.95 03/23/2021 19:30:13 69.42,-112.90 67.97 2.80 9
13 03/23/2021 20:20:59 -69.03, 54.98 112.45 03/23/2021 20:19:47 -69.09, 54.32 112.37 27.58 72
14 03/26/2021 10:56:01 -69.61,-164.54 112.88 03/26/2021 10:57:12 -69.58,-164.45 112.92 4.97 71
15 03/26/2021 11:46:43 69.45, 3.00 66.95 03/26/2021 11:46:39 69.46, 3.04 66.95 1.55 4
16 03/26/2021 12:37:23 -69.24, 170.62 113.29 03/26/2021 12:36:11 -69.25, 170.39 113.27 9.09 72



Historial Predications of SNOs between FY3D and TERRA
